Weather in Samoded

Russia / Arkhangel'skaya Oblast'     63°36′40″N   40°30′45″E
temp.,
°C
wind,
m/s
gust,
m/s
humid.,
%
clouds,
%
prec.,
mm/h
press.,
hPa
HPBL,
m
23 april, fri
fri2300:00+3sw4880100 0.0 1011749
03:00+3ssw3886100 0.0 1012377
06:00+2s26905 0.0 1013179
09:00+7se35715 0.0 1013489
12:00+12se47589 0.0 10131070
15:00+15se584874 0.1 10111931
18:00+13se51165100 0.9 1011978
21:00+10se51375100 1.2 1011636
24 april, sat
sat2400:00+9sse4128179 0.1 1011568
03:00+8se31192100 0.3 1012431
06:00+8se3892100 0.0 1012420
09:00+11se587472 0.0 1011811
12:00+14se6105648 0.3 10101784
15:00+15ese6105079 0.9 10092151
18:00+14se6115355 0.3 10081543
21:00+10se5136535 0.3 1009861
25 april, sun
sun2500:00+8ese512715 0.0 1008659
03:00+6ese41178100 0.0 1008527
06:00+5e41080100 0.0 1007555
09:00+8e4869100 0.0 1006798
12:00+6e4790100 0.2 10061020
15:00+6e4894100 0.9 1005957
18:00+7ne3885100 0.6 1005524
21:00+6ene3886100 0.7 1004371
26 april, mon
mon2600:00+5ene2593100 0.6 1004672
03:00+5ene3793100 0.7 1003505
06:00+4ne2696100 0.6 1003703
09:00+5nne2594100 1.3 1002729
12:00+6ne2387100 0.2 1003698
15:00+5ne1293100 1.2 1003481
18:00+5nne1290100 0.2 1002353
21:00+4n1397100 0.9 1002116
27 april, tue
tue2700:00+4nnw1297100 1.6 1002160
03:00+4nnw1197100 2.1 100143
06:00+4nnw1198100 0.5 100157
09:00+4wnw2297100 2.0 1001482
12:00+4nnw2494100 0.4 1002678
15:00+5nnw3589100 0.8 1002766
18:00+3nnw3691100 0.1 1003581
21:00+2nnw3697100 0.2 1004502